Hauptseite
METAR-TAF:

METAR-TAF

Flughäfen :

Militärflugplatz Dübendorf

Dübendorf, Schweiz

Breite: 47-23-55N, Länge: 8-38-53E, Höhe: 448 m

Beobachtung

Neuester Wetterbericht von vor 28 Minuten, um 03:50 UTC
Windstille
Temperatur -2°C
Luftfeuchtigkeit 93%
Luftdruck 1017 hPa
Sichtweite: 5000 m
Leicht bewölkt in der Höhe von 5800 ft
Durchbrochene Bewölkung in der Höhe von 8300 ft
Geschlossene Wolkendecke in der Höhe von 12000 ft

METAR: LSMD 210350Z AUTO 00000KT 5000NDV FEW058 BKN083 OVC120 M02/M03 Q1017 RMK

Zeit: 05:18 (04:18 UTC)


TAF: fehlend

Wetterbeobachtungen und Prognosen von mehr als 4000 Flughäfen (METAR und TAF Bericht).

Die verfügbaren Stationen werden durch gelbe und rote Markierungen auf der Karte dargestellt.

Führen Sie die Maus auf sie, um den Namen der Station zu sehen.

Darauf klicken, um die Beobachtung von Wetterbeobachtungen und Prognosen zu sehen.

Um die Karte zu ändern : klicken Sie auf den grünen Tasten mit einem schwarzen Kreuz Zum Vergrößern, auf den grünen Button mit einem Gedankenstrich zu verkleinern, oder auf die grünen Pfeile für benachbarte Karten.


METAR-TAF: